User: anonymous   Login
Location: Unspecified
(0.0000°N, 0.0000°E)
Time: 15:36:41
(UTC+00:00)
Language:

CANX-2 - Orbit

View from above orbital plane
View from above orbital plane
View from above satellite
View from above satellite

Ground track
Ground track

The orbit data is extracted from the following two-line orbital elements,

1 32790U 08021H   19078.69133777  .00000174  00000-0  24594-4 0  9990
2 32790  97.5526  80.8320 0013147 201.4392 158.6276 14.87952079590073
Epoch (UTC): 19 March 2019 16:35:31
Eccentricity: 0.0013147
inclination: 97.5526°
perigee height: 595 km
apogee height: 613 km
right ascension of ascending node: 80.8320°
argument of perigee: 201.4392°
revolutions per day: 14.87952079
mean anomaly at epoch: 158.6276°
orbit number at epoch: 59007

The dashed part of the orbit path shows where the satellite is in the earth's shadow,  

DLR